• In Hungary
  • List of Countries
  • For 7 days
  • Water Temperature
  • Satellite Maps
  • Weather Map
  • News
  • Weather Widgets
  • user-avatar
    Login

    Hourly Weather Puzla

    Today, 22 May, Tuesday

    Time Temperature Precipitation Wind Pressure Humidity
    00:00 +10°C° 0 mm 3 mps 749 mmHg 56%
    01:00 +10°C° 0 mm 4 mps 748 mmHg 54%
    02:00 +11°C° 0 mm 4 mps 748 mmHg 56%
    03:00 +11°C° 0 mm 4 mps 748 mmHg 58%
    04:00 +12°C° 0 mm 5 mps 747 mmHg 60%
    05:00 +12°C° 0 mm 4 mps 747 mmHg 62%
    06:00 +13°C° 0 mm 4 mps 747 mmHg 64%
    07:00 +13°C° 0 mm 4 mps 748 mmHg 67%
    08:00 +14°C° 0 mm 5 mps 748 mmHg 57%
    09:00 +14°C° 0 mm 5 mps 749 mmHg 48%
    10:00 +14°C° 0 mm 6 mps 750 mmHg 37%
    11:00 +15°C° 0 mm 6 mps 751 mmHg 32%
    12:00 +15°C° 0 mm 6 mps 751 mmHg 28%
    13:00 +15°C° 0 mm 6 mps 752 mmHg 23%
    14:00 +15°C° 0 mm 5 mps 752 mmHg 23%
    15:00 +16°C° 0 mm 5 mps 752 mmHg 23%
    16:00 +16°C° 0 mm 5 mps 753 mmHg 24%
    17:00 +15°C° 0 mm 4 mps 753 mmHg 25%
    18:00 +15°C° 0 mm 4 mps 753 mmHg 27%
    19:00 +14°C° 0 mm 3 mps 753 mmHg 29%
    20:00 +13°C° 0 mm 2 mps 754 mmHg 35%
    21:00 +10°C° 0 mm 2 mps 754 mmHg 40%
    22:00 +9°C° 0 mm 1 mps 754 mmHg 46%
    23:00 +8°C° 0 mm 1 mps 754 mmHg 48%

    Tomorrow, 23 May, Wednesday

    Time Temperature Precipitation Wind Pressure Humidity
    00:00 +7°C° 0 mm 0 mps 754 mmHg 49%
    01:00 +6°C° 0 mm 0 mps 754 mmHg 50%
    02:00 +7°C° 0 mm 1 mps 754 mmHg 51%
    03:00 +7°C° 0 mm 1 mps 754 mmHg 52%
    04:00 +7°C° 0 mm 1 mps 754 mmHg 53%
    05:00 +7°C° 0 mm 2 mps 753 mmHg 49%
    06:00 +9°C° 0 mm 3 mps 753 mmHg 44%
    07:00 +11°C° 0 mm 3 mps 752 mmHg 39%
    08:00 +12°C° 0 mm 4 mps 751 mmHg 38%
    09:00 +12°C° 0 mm 4 mps 750 mmHg 38%
    10:00 +13°C° 0 mm 5 mps 749 mmHg 37%
    11:00 +14°C° 0.1 mm 5 mps 748 mmHg 43%
    12:00 +15°C° 0.1 mm 5 mps 747 mmHg 49%
    13:00 +16°C° 0.1 mm 5 mps 747 mmHg 55%
    14:00 +16°C° 0.2 mm 5 mps 746 mmHg 58%
    15:00 +17°C° 0.2 mm 5 mps 745 mmHg 60%
    16:00 +17°C° 0.2 mm 5 mps 744 mmHg 62%
    17:00 +19°C° 0 mm 5 mps 744 mmHg 61%
    18:00 +19°C° 0 mm 4 mps 743 mmHg 59%
    19:00 +19°C° 0 mm 3 mps 742 mmHg 57%
    20:00 +18°C° 0.5 mm 3 mps 742 mmHg 66%
    21:00 +16°C° 0.5 mm 3 mps 742 mmHg 74%
    22:00 +14°C° 0.5 mm 3 mps 741 mmHg 83%
    23:00 +13°C° 0.6 mm 3 mps 742 mmHg 86%

    Day after tomorrow, 24 May, Thursday

    Time Temperature Precipitation Wind Pressure Humidity
    00:00 +12°C° 0.6 mm 3 mps 742 mmHg 89%
    01:00 +11°C° 0.6 mm 3 mps 742 mmHg 92%
    02:00 +10°C° 0.1 mm 3 mps 742 mmHg 88%
    03:00 +7°C° 0.1 mm 4 mps 743 mmHg 85%
    04:00 +6°C° 0.1 mm 4 mps 743 mmHg 82%
    05:00 +6°C° 0.1 mm 4 mps 744 mmHg 79%
    06:00 +5°C° 0.1 mm 4 mps 745 mmHg 75%
    07:00 +5°C° 0.1 mm 4 mps 745 mmHg 72%
    08:00 +6°C° 0 mm 4 mps 746 mmHg 64%
    09:00 +7°C° 0 mm 4 mps 746 mmHg 56%
    10:00 +8°C° 0 mm 5 mps 747 mmHg 48%
    11:00 +8°C° 0 mm 5 mps 747 mmHg 46%
    12:00 +9°C° 0 mm 5 mps 748 mmHg 44%
    13:00 +9°C° 0 mm 5 mps 748 mmHg 42%
    14:00 +9°C° 0 mm 5 mps 748 mmHg 41%
    15:00 +9°C° 0 mm 5 mps 749 mmHg 41%
    16:00 +10°C° 0 mm 4 mps 749 mmHg 40%
    17:00 +8°C° 0 mm 4 mps 749 mmHg 42%
    18:00 +8°C° 0 mm 4 mps 749 mmHg 43%
    19:00 +7°C° 0 mm 4 mps 749 mmHg 44%
    20:00 +7°C° 0 mm 3 mps 749 mmHg 49%
    21:00 +5°C° 0 mm 2 mps 749 mmHg 55%
    22:00 +4°C° 0 mm 2 mps 749 mmHg 61%
    23:00 +4°C° 0 mm 2 mps 749 mmHg 63%

    25 May, Friday

    Time Temperature Precipitation Wind Pressure Humidity
    00:00 +3°C° 0 mm 2 mps 750 mmHg 66%
    01:00 +2°C° 0 mm 3 mps 750 mmHg 68%
    02:00 +1°C° 0 mm 3 mps 750 mmHg 69%
    03:00 0°C° 0 mm 3 mps 750 mmHg 71%
    04:00 0°C° 0 mm 3 mps 750 mmHg 72%
    05:00 0°C° 0 mm 3 mps 751 mmHg 67%
    06:00 +1°C° 0 mm 3 mps 751 mmHg 61%
    07:00 0°C° 0 mm 4 mps 751 mmHg 56%
    08:00 +1°C° 0 mm 4 mps 751 mmHg 54%
    09:00 +1°C° 0 mm 4 mps 751 mmHg 51%
    10:00 +1°C° 0 mm 4 mps 752 mmHg 48%
    11:00 +3°C° 0 mm 4 mps 752 mmHg 45%
    12:00 +3°C° 0 mm 5 mps 752 mmHg 42%
    13:00 +5°C° 0 mm 5 mps 752 mmHg 39%
    14:00 +5°C° 0 mm 5 mps 752 mmHg 37%
    15:00 +6°C° 0 mm 5 mps 752 mmHg 36%
    16:00 +7°C° 0 mm 5 mps 752 mmHg 34%
    17:00 +6°C° 0 mm 4 mps 752 mmHg 36%
    18:00 +6°C° 0 mm 4 mps 752 mmHg 37%
    19:00 +7°C° 0 mm 3 mps 753 mmHg 39%
    20:00 +4°C° 0 mm 3 mps 752 mmHg 46%
    21:00 +4°C° 0 mm 2 mps 752 mmHg 53%
    22:00 +3°C° 0 mm 1 mps 752 mmHg 60%
    23:00 +4°C° 0 mm 1 mps 752 mmHg 62%

    26 May, Saturday

    Time Temperature Precipitation Wind Pressure Humidity
    00:00 +4°C° 0 mm 1 mps 752 mmHg 65%
    01:00 +3°C° 0 mm 2 mps 752 mmHg 68%
    02:00 +3°C° 0 mm 2 mps 752 mmHg 74%
    03:00 +2°C° 0 mm 2 mps 752 mmHg 80%
    04:00 +2°C° 0 mm 2 mps 752 mmHg 87%
    05:00 +4°C° 0 mm 2 mps 752 mmHg 80%
    06:00 +4°C° 0 mm 3 mps 752 mmHg 73%
    07:00 +7°C° 0 mm 3 mps 752 mmHg 66%
    08:00 +8°C° 0 mm 3 mps 752 mmHg 62%
    09:00 +8°C° 0 mm 3 mps 752 mmHg 58%
    10:00 +8°C° 0 mm 4 mps 752 mmHg 55%
    11:00 +8°C° 0 mm 4 mps 752 mmHg 52%
    12:00 +10°C° 0 mm 4 mps 752 mmHg 50%
    13:00 +11°C° 0 mm 4 mps 752 mmHg 48%
    14:00 +11°C° 0 mm 4 mps 752 mmHg 46%
    15:00 +12°C° 0 mm 4 mps 751 mmHg 45%
    16:00 +12°C° 0 mm 3 mps 751 mmHg 43%
    17:00 +13°C° 0 mm 3 mps 751 mmHg 43%
    18:00 +13°C° 0 mm 3 mps 750 mmHg 43%
    19:00 +14°C° 0 mm 2 mps 750 mmHg 44%
    20:00 +12°C° 0 mm 2 mps 750 mmHg 51%
    21:00 +9°C° 0 mm 2 mps 749 mmHg 58%
    22:00 +8°C° 0 mm 2 mps 749 mmHg 65%
    23:00 +8°C° 0 mm 2 mps 748 mmHg 65%

    27 May, Sunday

    Time Temperature Precipitation Wind Pressure Humidity
    00:00 +8°C° 0 mm 3 mps 747 mmHg 65%
    01:00 +8°C° 0 mm 3 mps 746 mmHg 65%
    02:00 +8°C° 0.1 mm 3 mps 746 mmHg 65%
    03:00 +9°C° 0.1 mm 3 mps 745 mmHg 65%
    04:00 +9°C° 0.1 mm 3 mps 744 mmHg 65%
    05:00 +8°C° 1.4 mm 3 mps 743 mmHg 73%
    06:00 +8°C° 1.4 mm 3 mps 743 mmHg 81%
    07:00 +7°C° 1.4 mm 2 mps 743 mmHg 89%
    08:00 +7°C° 0.1 mm 3 mps 743 mmHg 81%
    09:00 +8°C° 0.1 mm 3 mps 743 mmHg 74%
    10:00 +7°C° 0.1 mm 4 mps 742 mmHg 67%
    11:00 +10°C° 0.1 mm 4 mps 743 mmHg 59%
    12:00 +10°C° 0.1 mm 5 mps 743 mmHg 51%
    13:00 +12°C° 0.1 mm 5 mps 743 mmHg 43%
    14:00 +11°C° 0.3 mm 6 mps 743 mmHg 42%
    15:00 +10°C° 0.3 mm 6 mps 743 mmHg 41%
    16:00 +10°C° 0.3 mm 6 mps 743 mmHg 41%
    17:00 +9°C° 0 mm 6 mps 744 mmHg 42%
    18:00 +8°C° 0 mm 5 mps 744 mmHg 44%
    19:00 +8°C° 0 mm 5 mps 744 mmHg 46%
    20:00 +6°C° 0 mm 4 mps 744 mmHg 52%
    21:00 +5°C° 0 mm 4 mps 745 mmHg 58%
    22:00 +4°C° 0 mm 3 mps 745 mmHg 64%
    23:00 +3°C° 0 mm 3 mps 745 mmHg 66%
    Show more